This is the latest recevied weather packets stored in our database for station/object K4CRS-13. If no packets are shown the sender has not sent any weather packets the latest 10 day(s).
| Time | Temp. | Humidity | Pressure | Rain* | Wind** | Luminosity | Snow |
|---|---|---|---|---|---|---|---|
| 1787752167 | 28.89° C | 70% | 1052.1 hPa | 0 mm | - | 267 W/m² | - |
| 1787751865 | 29.44° C | 69% | 1052.3 hPa | 0 mm | - | 195 W/m² | - |
| 1787751561 | 28.89° C | 71% | 1052.3 hPa | 0 mm | - | 189 W/m² | - |
| 1787751261 | 28.89° C | 72% | 1052.2 hPa | 0 mm | - | 241 W/m² | - |
| 1787750957 | 28.89° C | 71% | 1052.2 hPa | 0 mm | - | 143 W/m² | - |
| 1787750652 | 27.78° C | 74% | 1052.2 hPa | 0 mm | - | 208 W/m² | - |
| 1787750351 | 27.22° C | 76% | 1052 hPa | 0 mm | - | 203 W/m² | - |
| 1787750046 | 26.67° C | 77% | 1051.7 hPa | 0 mm | - | 195 W/m² | - |
| 1787749743 | 26.11° C | 80% | 1052.1 hPa | 0 mm | - | 183 W/m² | - |
| 1787749438 | 26.11° C | 83% | 1051.9 hPa | 0 mm | - | 168 W/m² | - |
| 1787749137 | 25.56° C | 85% | 1051.8 hPa | 0 mm | - | 157 W/m² | - |
| 1787748832 | 25° C | 88% | 1052 hPa | 0 mm | - | 142 W/m² | - |
| 1787748532 | 24.44° C | 90% | 1051.8 hPa | 0 mm | - | 129 W/m² | - |
| 1787748228 | 23.89° C | 93% | 1051.8 hPa | 0 mm | - | 118 W/m² | - |
| 1787747928 | 22.78° C | 95% | 1052 hPa | 0 mm | - | 107 W/m² | - |
| 1787747623 | 22.78° C | 96% | 1051.7 hPa | 0 mm | - | 97 W/m² | - |
| 1787747319 | 22.22° C | 97% | 1052 hPa | 0 mm | - | 86 W/m² | - |
| 1787747018 | 21.67° C | 97% | 1051.6 hPa | 0 mm | - | 76 W/m² | - |
| 1787746715 | 21.11° C | 97% | 1051.8 hPa | 0 mm | - | 63 W/m² | - |
| 1787746414 | 21.11° C | 98% | 1051.7 hPa | 0 mm | - | 49 W/m² | - |
| 1787746112 | 20.56° C | 98% | 1051.4 hPa | 0 mm | - | 42 W/m² | - |
| 1787745808 | 20.56° C | 98% | 1051.6 hPa | 0 mm | - | 35 W/m² | - |
| 1787745506 | 20° C | 98% | 1051.4 hPa | 0 mm | - | 29 W/m² | - |
| 1787745201 | 20° C | 98% | 1051.4 hPa | 0 mm | - | 24 W/m² | - |
| 1787744897 | 20° C | 98% | 1051.4 hPa | 0 mm | - | 19 W/m² | - |
* Rain latest hour (hover to see other rain measurements)
** Current wind speed in m/s (hover to see current wind gust speed)